TimeCST,TemperatureF,Dew PointF,Humidity,Sea Level PressureIn,VisibilityMPH,Wind Direction,Wind SpeedMPH,Gust SpeedMPH,PrecipitationIn,Events,Conditions,WindDirDegrees,DateUTC
12:41 AM,66.2,62.6,88,30.09,10.0,ESE,16.1,-,N/A,Rain,Light Rain,110,2013-01-11 06:41:00
12:59 AM,66.2,63.5,91,30.09,10.0,ESE,13.8,24.2,0.00,,Mostly Cloudy,120,2013-01-11 06:59:00
1:55 AM,65.7,61.7,87,30.09,10.0,ESE,15.0,-,N/A,,Overcast,120,2013-01-11 07:55:00
2:55 AM,66.7,64.2,92,30.12,10.0,Variable,5.8,-,N/A,,Mostly Cloudy,0,2013-01-11 08:55:00
3:58 AM,65.1,63.5,94,30.10,9.0,Variable,3.5,-,N/A,,Scattered Clouds,0,2013-01-11 09:58:00
4:55 AM,63.0,62.2,97,30.12,7.0,NE,2.3,-,N/A,,Mostly Cloudy,50,2013-01-11 10:55:00
5:55 AM,63.7,63.0,97,30.12,7.0,East,4.6,-,N/A,,Mostly Cloudy,80,2013-01-11 11:55:00
6:55 AM,64.2,62.8,95,30.15,10.0,ESE,4.6,-,N/A,,Mostly Cloudy,120,2013-01-11 12:55:00
7:55 AM,65.7,64.2,95,30.19,7.0,ESE,8.1,-,N/A,,Mostly Cloudy,120,2013-01-11 13:55:00
8:12 AM,66.2,64.4,94,30.18,7.0,ESE,9.2,-,N/A,,Mostly Cloudy,120,2013-01-11 14:12:00
8:55 AM,67.8,65.5,92,30.20,7.0,SE,8.1,-,N/A,,Mostly Cloudy,130,2013-01-11 14:55:00
9:55 AM,70.3,66.9,89,30.20,7.0,SE,8.1,-,N/A,,Mostly Cloudy,140,2013-01-11 15:55:00
10:31 AM,71.6,68.0,88,30.19,7.0,SSE,6.9,-,N/A,,Overcast,150,2013-01-11 16:31:00
10:55 AM,71.2,66.9,86,30.19,7.0,SSE,6.9,-,N/A,,Overcast,160,2013-01-11 16:55:00
11:55 AM,72.3,67.1,84,30.17,7.0,SE,8.1,-,N/A,,Overcast,140,2013-01-11 17:55:00
12:27 PM,73.4,68.0,83,30.14,7.0,SSE,11.5,-,N/A,,Overcast,150,2013-01-11 18:27:00
12:55 PM,73.4,67.3,81,30.14,10.0,SSE,11.5,-,N/A,,Mostly Cloudy,150,2013-01-11 18:55:00
1:19 PM,73.4,68.0,83,30.13,10.0,SSE,11.5,-,N/A,,Mostly Cloudy,160,2013-01-11 19:19:00
2:55 PM,71.2,66.6,85,30.13,10.0,SE,9.2,-,N/A,,Mostly Cloudy,130,2013-01-11 20:55:00
3:55 PM,69.6,66.2,89,30.13,10.0,SE,10.4,-,N/A,,Overcast,130,2013-01-11 21:55:00
4:24 PM,68.0,66.2,94,30.11,10.0,SE,10.4,-,N/A,,Overcast,130,2013-01-11 22:24:00
4:55 PM,68.0,65.7,92,30.13,10.0,SE,9.2,-,N/A,,Overcast,130,2013-01-11 22:55:00
5:22 PM,68.0,66.2,94,30.12,10.0,ESE,8.1,-,N/A,,Overcast,120,2013-01-11 23:22:00
5:45 PM,68.0,66.2,94,30.13,10.0,SE,6.9,-,N/A,,Overcast,130,2013-01-11 23:45:00
5:55 PM,67.6,65.8,94,30.14,10.0,SE,9.2,-,N/A,,Overcast,130,2013-01-11 23:55:00
6:55 PM,67.3,65.8,95,30.16,10.0,ESE,6.9,-,N/A,,Overcast,120,2013-01-12 00:55:00
7:32 PM,66.2,66.2,100,30.15,4.0,ESE,8.1,-,N/A,,Overcast,120,2013-01-12 01:32:00
7:55 PM,66.6,65.5,96,30.16,3.0,ESE,8.1,-,N/A,,Overcast,120,2013-01-12 01:55:00
8:33 PM,66.2,66.2,100,30.15,1.5,ESE,8.1,-,N/A,,Overcast,120,2013-01-12 02:33:00
8:55 PM,66.9,66.0,97,30.16,1.5,ESE,6.9,-,N/A,,Overcast,120,2013-01-12 02:55:00
9:33 PM,66.2,66.2,100,30.15,0.5,SE,5.8,-,N/A,Fog,Fog,130,2013-01-12 03:33:00
9:55 PM,66.4,65.8,98,30.16,0.5,SE,5.8,-,N/A,Fog,Fog,130,2013-01-12 03:55:00
10:38 PM,66.2,66.2,100,30.15,0.2,SE,3.5,-,N/A,Fog,Fog,140,2013-01-12 04:38:00
10:55 PM,66.4,65.8,98,30.16,0.2,SSE,3.5,-,N/A,Fog,Fog,160,2013-01-12 04:55:00
11:27 PM,66.2,66.2,100,30.14,1.0,ESE,5.8,-,N/A,,Mist,120,2013-01-12 05:27:00
11:55 PM,66.2,65.8,99,30.14,1.0,ESE,5.8,-,N/A,,Mist,120,2013-01-12 05:55:00